| time (UTC) | temp C | wind direction | speed KPH | gust KPH | rain 1hr cm | rain 24hr cm | rain mn cm | humidity % | barometer mb |
| 20260901070109 | 12 | 42 | 0.0 | 0.0 | 0.00 | 0.00 | 0.00 | 95 | 934.9 |
| 20260901065603 | 12 | 43 | 0.0 | 0.0 | 0.00 | 0.00 | 0.00 | 95 | 934.9 |
| 20260901065102 | 12 | 72 | 0.0 | 0.0 | 0.00 | 0.00 | 0.00 | 95 | 935.1 |
| 20260901064600 | 12 | 32 | 0.0 | 0.0 | 0.00 | 0.00 | 0.00 | 95 | 934.8 |
| 20260901064056 | 12 | 36 | 0.0 | 0.0 | 0.00 | 0.00 | 0.00 | 94 | 934.9 |
| 20260901063552 | 12 | 40 | 0.0 | 0.0 | 0.00 | 0.00 | 0.00 | 94 | 934.8 |
| 20260901063048 | 12 | 48 | 0.0 | 0.0 | 0.00 | 0.00 | 0.00 | 94 | 934.8 |
| 20260901062544 | 12 | 41 | 0.0 | 0.0 | 0.00 | 0.00 | 0.00 | 94 | 934.8 |
| 20260901062039 | 12 | 55 | 0.0 | 0.0 | 0.00 | 0.00 | 0.00 | 94 | 934.9 |
| 20260901061536 | 12 | 33 | 0.0 | 0.0 | 0.00 | 0.00 | 0.00 | 94 | 935.0 |
| 20260901061031 | 12 | 23 | 0.0 | 0.0 | 0.00 | 0.00 | 0.00 | 94 | 935.0 |
| 20260901060530 | 12 | 32 | 0.0 | 0.0 | 0.00 | 0.00 | 0.00 | 94 | 934.9 |
| 20260901060026 | 12 | 77 | 0.0 | 0.0 | 0.00 | 0.36 | 0.36 | 94 | 934.9 |
| 20260901055521 | 12 | 57 | 0.0 | 0.0 | 0.00 | 0.36 | 0.36 | 94 | 935.1 |
| 20260901055018 | 12 | 46 | 0.0 | 0.0 | 0.00 | 0.36 | 0.36 | 94 | 935.3 |
| 20260901054515 | 12 | 52 | 0.0 | 0.0 | 0.00 | 0.36 | 0.36 | 94 | 935.1 |
| 20260901054010 | 12 | 40 | 0.0 | 0.0 | 0.00 | 0.36 | 0.36 | 94 | 935.3 |
| 20260901053506 | 12 | 61 | 0.0 | 0.0 | 0.00 | 0.36 | 0.36 | 94 | 935.5 |
| 20260901053001 | 13 | 92 | 0.0 | 0.0 | 0.00 | 0.36 | 0.36 | 93 | 935.2 |
| 20260901052457 | 12 | 54 | 0.0 | 0.0 | 0.00 | 0.36 | 0.36 | 93 | 935.7 |
| 20260901051955 | 13 | 80 | 0.0 | 0.0 | 0.00 | 0.36 | 0.36 | 93 | 935.6 |
| 20260901051452 | 13 | 127 | 0.0 | 0.0 | 0.00 | 0.36 | 0.36 | 93 | 935.3 |
| 20260901050950 | 13 | 82 | 0.0 | 0.0 | 0.00 | 0.36 | 0.36 | 93 | 935.7 |
| 20260901050446 | 13 | 45 | 0.0 | 0.0 | 0.00 | 0.36 | 0.36 | 93 | 935.3 |
| 20260901045946 | 13 | 44 | 0.0 | 0.0 | 0.00 | 0.36 | 0.36 | 93 | 935.6 |
| 20260901045441 | 13 | 32 | 0.0 | 0.0 | 0.00 | 0.36 | 0.36 | 92 | 935.6 |
| 20260901044936 | 13 | 51 | 0.0 | 0.0 | 0.00 | 0.36 | 0.36 | 92 | 936.0 |
| 20260901044432 | 13 | 45 | 0.0 | 0.0 | 0.00 | 0.36 | 0.36 | 92 | 935.8 |
| 20260901043928 | 13 | 75 | 0.0 | 0.0 | 0.00 | 0.36 | 0.36 | 92 | 936.1 |
| 20260901043424 | 13 | 65 | 0.0 | 0.0 | 0.00 | 0.36 | 0.36 | 92 | 936.0 |
| 20260901042918 | 13 | 42 | 0.0 | 0.0 | 0.00 | 0.36 | 0.36 | 92 | 936.4 |
| 20260901042412 | 13 | 42 | 0.0 | 0.0 | 0.00 | 0.36 | 0.36 | 92 | 936.6 |
| 20260901041908 | 13 | 42 | 0.0 | 0.0 | 0.00 | 0.36 | 0.36 | 91 | 936.6 |
| 20260901041403 | 13 | 78 | 0.0 | 0.0 | 0.00 | 0.36 | 0.36 | 91 | 936.6 |
| 20260901040902 | 13 | 38 | 0.0 | 0.0 | 0.00 | 0.36 | 0.36 | 91 | 936.5 |
| 20260901040402 | 13 | 55 | 0.0 | 0.0 | 0.00 | 0.36 | 0.36 | 91 | 936.9 |
| 20260901035901 | 13 | 54 | 0.0 | 0.0 | 0.00 | 0.36 | 0.36 | 91 | 936.8 |
| 20260901035400 | 13 | 40 | 0.0 | 0.0 | 0.00 | 0.36 | 0.36 | 91 | 936.7 |
| 20260901034858 | 13 | 48 | 0.0 | 0.0 | 0.00 | 0.36 | 0.36 | 91 | 936.8 |
| 20260901034353 | 13 | 62 | 0.0 | 0.0 | 0.00 | 0.36 | 0.36 | 91 | 936.8 |
| 20260901033849 | 13 | 49 | 0.0 | 0.0 | 0.00 | 0.36 | 0.36 | 90 | 936.9 |
| 20260901033348 | 13 | 43 | 0.0 | 0.0 | 0.00 | 0.36 | 0.36 | 90 | 936.9 |
| 20260901032846 | 13 | 38 | 0.0 | 0.0 | 0.18 | 0.36 | 0.36 | 90 | 937.2 |
| 20260901032346 | 13 | 64 | 0.0 | 0.0 | 0.18 | 0.36 | 0.36 | 89 | 937.0 |
| 20260901031841 | 13 | 53 | 0.0 | 0.0 | 0.00 | 0.33 | 0.33 | 89 | 936.8 |
| 20260901031337 | 13 | 47 | 0.0 | 0.0 | 0.00 | 0.33 | 0.33 | 88 | 936.8 |
| 20260901030837 | 13 | 77 | 0.0 | 0.0 | 0.00 | 0.33 | 0.33 | 88 | 936.8 |
| 20260901030333 | 13 | 62 | 0.0 | 0.0 | 0.00 | 0.33 | 0.33 | 88 | 936.9 |
| 20260901025832 | 13 | 57 | 0.0 | 0.0 | 0.00 | 0.33 | 0.33 | 88 | 936.6 |
| 20260901025327 | 13 | 74 | 0.0 | 0.0 | 0.00 | 0.33 | 0.33 | 88 | 936.6 |
| 20260901024827 | 13 | 56 | 0.0 | 0.0 | 0.00 | 0.33 | 0.33 | 88 | 936.8 |
| 20260901024326 | 13 | 56 | 0.0 | 1.6 | 0.00 | 0.33 | 0.33 | 88 | 936.6 |
| 20260901023824 | 13 | 70 | 3.2 | 3.2 | 0.00 | 0.33 | 0.33 | 87 | 936.6 |
| 20260901023319 | 13 | 45 | 0.0 | 0.0 | 0.00 | 0.33 | 0.33 | 87 | 936.7 |
| 20260901022815 | 13 | 39 | 3.2 | 3.2 | 0.00 | 0.33 | 0.33 | 87 | 936.8 |
| 20260901022310 | 14 | 37 | 0.0 | 1.6 | 0.00 | 0.33 | 0.33 | 86 | 936.6 |
| 20260901021805 | 14 | 57 | 1.6 | 3.2 | 0.13 | 0.33 | 0.33 | 85 | 936.6 |
| 20260901021301 | 14 | 26 | 0.0 | 0.0 | 0.13 | 0.33 | 0.33 | 84 | 936.9 |
| 20260901020756 | 14 | 29 | 0.0 | 1.6 | 0.00 | 0.30 | 0.30 | 83 | 936.7 |
| 20260901020251 | 14 | 35 | 0.0 | 0.0 | 0.00 | 0.30 | 0.30 | 82 | 936.6 |
| 20260901015746 | 14 | 8 | 3.2 | 3.2 | 0.30 | 0.30 | 0.30 | 81 | 936.7 |
| 20260901015242 | 15 | 220 | 1.6 | 8.0 | 0.30 | 0.28 | 0.28 | 79 | 936.5 |
| 20260901014741 | 15 | 296 | 8.0 | 9.7 | 0.00 | 0.23 | 0.23 | 77 | 936.5 |
| 20260901014237 | 15 | 281 | 4.8 | 9.7 | 0.00 | 0.23 | 0.23 | 75 | 936.2 |
| 20260901013733 | 16 | 220 | 4.8 | 8.0 | 0.00 | 0.23 | 0.23 | 73 | 936.0 |
| 20260901013234 | 16 | 260 | 8.0 | 12.9 | 0.00 | 0.23 | 0.23 | 69 | 935.8 |
| 20260901012729 | 16 | 218 | 0.0 | 3.2 | 0.00 | 0.23 | 0.23 | 66 | 935.7 |
| 20260901012229 | 16 | 37 | 0.0 | 12.9 | 0.00 | 0.23 | 0.23 | 64 | 935.6 |
| 20260901011725 | 16 | 53 | 11.3 | 20.9 | 0.00 | 0.23 | 0.23 | 67 | 935.2 |
| 20260901011220 | 17 | 141 | 4.8 | 20.9 | 0.00 | 0.23 | 0.23 | 68 | 935.6 |
| 20260901010714 | 17 | 157 | 8.0 | 20.9 | 0.00 | 0.23 | 0.23 | 66 | 935.2 |
| 20260901010209 | 18 | 156 | 8.0 | 16.1 | 0.00 | 0.23 | 0.23 | 65 | 935.0 |
| 20260901005707 | 18 | 140 | 3.2 | 4.8 | 0.00 | 0.23 | 0.23 | 65 | 934.8 |
| 20260901005203 | 18 | 61 | 0.0 | 0.0 | 0.00 | 0.23 | 0.23 | 65 | 934.8 |
| 20260901004703 | 18 | 62 | 0.0 | 0.0 | 0.00 | 0.23 | 0.23 | 63 | 934.7 |
| 20260901004158 | 18 | 62 | 0.0 | 0.0 | 0.00 | 0.23 | 0.23 | 62 | 934.8 |
| 20260901003657 | 18 | 62 | 0.0 | 0.0 | 0.00 | 0.23 | 0.23 | 59 | 935.1 |
| 20260901003157 | 18 | 63 | 0.0 | 0.0 | 0.00 | 0.23 | 0.23 | 59 | 935.1 |
| 20260901002651 | 18 | 72 | 3.2 | 3.2 | 0.00 | 0.23 | 0.23 | 62 | 935.2 |
| 20260901002146 | 18 | 73 | 0.0 | 0.0 | 0.00 | 0.23 | 0.23 | 64 | 935.2 |
| 20260901001641 | 18 | 53 | 0.0 | 3.2 | 0.00 | 0.23 | 0.23 | 63 | 935.2 |
| 20260901001136 | 18 | 60 | 0.0 | 0.0 | 0.00 | 0.23 | 0.23 | 62 | 935.5 |
| 20260901000632 | 18 | 71 | 0.0 | 4.8 | 0.00 | 0.23 | 0.23 | 62 | 935.5 |
| 20260901000127 | 18 | 42 | 0.0 | 0.0 | 0.00 | 0.23 | 0.23 | 63 | 935.8 |
| 20260831235620 | 18 | 78 | 0.0 | 0.0 | 0.00 | 0.23 | 0.23 | 61 | 935.7 |
| 20260831235116 | 18 | 26 | 0.0 | 0.0 | 0.00 | 0.23 | 0.23 | 62 | 935.6 |
| 20260831234615 | 18 | 17 | 0.0 | 0.0 | 0.00 | 0.23 | 0.23 | 62 | 935.6 |
| 20260831234111 | 18 | 37 | 0.0 | 1.6 | 0.00 | 0.23 | 0.23 | 62 | 935.5 |
| 20260831233606 | 18 | 9 | 1.6 | 4.8 | 0.00 | 0.23 | 0.23 | 65 | 935.5 |
| 20260831233102 | 18 | 287 | 4.8 | 8.0 | 0.00 | 0.23 | 0.23 | 64 | 935.2 |
| 20260831232557 | 18 | 78 | 0.0 | 11.3 | 0.00 | 0.23 | 0.23 | 62 | 935.3 |
| 20260831232053 | 18 | 142 | 3.2 | 4.8 | 0.00 | 0.23 | 0.23 | 65 | 935.2 |
| 20260831231549 | 18 | 55 | 1.6 | 4.8 | 0.00 | 0.23 | 0.23 | 64 | 935.3 |
| 20260831231044 | 18 | 123 | 4.8 | 8.0 | 0.00 | 0.23 | 0.23 | 63 | 935.0 |
| 20260831230539 | 18 | 66 | 3.2 | 4.8 | 0.00 | 0.23 | 0.23 | 65 | 934.9 |
| 20260831230039 | 17 | 147 | 4.8 | 8.0 | 0.00 | 0.23 | 0.23 | 68 | 935.0 |
| 20260831225535 | 18 | 38 | 0.0 | 3.2 | 0.00 | 0.23 | 0.23 | 71 | 934.9 |
| 20260831225035 | 17 | 57 | 3.2 | 4.8 | 0.00 | 0.23 | 0.23 | 67 | 934.5 |
| 20260831224530 | 18 | 52 | 6.4 | 9.7 | 0.00 | 0.23 | 0.23 | 64 | 934.7 |
| 20260831224026 | 17 | 25 | 4.8 | 12.9 | 0.00 | 0.23 | 0.23 | 63 | 934.9 |
| 20260831223521 | 17 | 5 | 8.0 | 12.9 | 0.00 | 0.23 | 0.23 | 62 | 934.9 |
| 20260831223017 | 17 | 23 | 1.6 | 9.7 | 0.00 | 0.23 | 0.23 | 65 | 935.0 |
| 20260831222514 | 16 | 326 | 8.0 | 11.3 | 0.00 | 0.23 | 0.23 | 72 | 934.9 |
| 20260831222013 | 16 | 336 | 6.4 | 12.9 | 0.00 | 0.23 | 0.23 | 77 | 935.0 |
| 20260831221509 | 16 | 6 | 11.3 | 16.1 | 0.00 | 0.23 | 0.23 | 79 | 935.0 |
| 20260831221004 | 15 | 12 | 6.4 | 9.7 | 0.00 | 0.23 | 0.23 | 80 | 935.0 |
| 20260831220459 | 15 | 317 | 4.8 | 9.7 | 0.00 | 0.23 | 0.23 | 79 | 935.1 |
| 20260831215954 | 15 | 7 | 3.2 | 8.0 | 0.00 | 0.23 | 0.23 | 82 | 935.0 |
| 20260831215449 | 16 | 344 | 0.0 | 0.0 | 0.00 | 0.23 | 0.23 | 76 | 935.0 |
| 20260831214946 | 15 | 89 | 4.8 | 9.7 | 0.13 | 0.23 | 0.23 | 74 | 934.9 |
| 20260831214443 | 15 | 125 | 4.8 | 9.7 | 0.79 | 0.23 | 0.23 | 75 | 935.0 |
| 20260831213938 | 17 | 151 | 11.3 | 27.4 | 0.79 | 0.20 | 0.20 | 71 | 934.8 |
| 20260831213435 | 18 | 153 | 14.5 | 22.5 | 0.13 | 0.10 | 0.10 | 70 | 934.5 |
| 20260831212935 | 19 | 146 | 1.6 | 4.8 | 0.00 | 0.08 | 0.08 | 66 | 934.5 |
| 20260831212431 | 20 | 142 | 3.2 | 8.0 | 0.00 | 0.08 | 0.08 | 62 | 934.7 |
| 20260831211931 | 20 | 94 | 4.8 | 9.7 | 0.00 | 0.08 | 0.08 | 54 | 934.8 |
| 20260831211426 | 20 | 121 | 4.8 | 8.0 | 0.00 | 0.08 | 0.08 | 53 | 934.9 |
| 20260831210925 | 20 | 91 | 4.8 | 11.3 | 0.00 | 0.08 | 0.08 | 53 | 935.0 |
| 20260831210421 | 20 | 114 | 9.7 | 12.9 | 0.00 | 0.08 | 0.08 | 54 | 934.8 |
| 20260831205916 | 21 | 62 | 0.0 | 9.7 | 0.00 | 0.08 | 0.08 | 53 | 934.9 |
| 20260831205412 | 20 | 157 | 1.6 | 11.3 | 0.00 | 0.08 | 0.08 | 53 | 935.0 |
| 20260831204912 | 19 | 144 | 8.0 | 14.5 | 0.00 | 0.08 | 0.08 | 58 | 934.9 |
| 20260831204412 | 18 | 268 | 12.9 | 16.1 | 0.00 | 0.08 | 0.08 | 62 | 935.0 |
| 20260831203911 | 17 | 129 | 6.4 | 11.3 | 0.00 | 0.08 | 0.08 | 62 | 935.1 |
| 20260831203406 | 16 | 110 | 6.4 | 11.3 | 0.18 | 0.08 | 0.08 | 67 | 935.2 |
| 20260831202904 | 16 | 80 | 6.4 | 12.9 | 0.30 | 0.08 | 0.08 | 71 | 935.1 |
| 20260831202359 | 17 | 137 | 12.9 | 16.1 | 0.30 | 0.05 | 0.05 | 69 | 935.5 |
| 20260831201859 | 18 | 144 | 8.0 | 12.9 | 0.18 | 0.03 | 0.03 | 70 | 935.3 |
| 20260831201358 | 19 | 31 | 3.2 | 11.3 | 0.00 | 0.00 | 0.00 | 64 | 935.5 |
| 20260831200854 | 20 | 119 | 9.7 | 12.9 | 0.00 | 0.00 | 0.00 | 57 | 935.3 |
| 20260831200349 | 20 | 115 | 4.8 | 11.3 | 0.00 | 0.00 | 0.00 | 59 | 935.3 |
| 20260831195844 | 20 | 138 | 11.3 | 14.5 | 0.00 | 0.00 | 0.00 | 54 | 935.5 |
| 20260831195340 | 21 | 137 | 3.2 | 12.9 | 0.00 | 0.00 | 0.00 | 55 | 935.3 |
| 20260831194835 | 21 | 114 | 9.7 | 14.5 | 0.00 | 0.00 | 0.00 | 45 | 935.3 |
| 20260831194330 | 22 | 143 | 9.7 | 16.1 | 0.00 | 0.00 | 0.00 | 45 | 935.7 |
| 20260831193829 | 22 | 131 | 6.4 | 24.1 | 0.00 | 0.00 | 0.00 | 45 | 935.5 |
| 20260831193325 | 23 | 69 | 11.3 | 25.7 | 0.00 | 0.00 | 0.00 | 41 | 935.6 |
| 20260831192820 | 25 | 87 | 0.0 | 1.6 | 0.00 | 0.00 | 0.00 | 38 | 935.3 |
| 20260831192320 | 25 | 115 | 0.0 | 0.0 | 0.00 | 0.00 | 0.00 | 34 | 935.7 |
| 20260831191816 | 25 | 44 | 0.0 | 0.0 | 0.00 | 0.00 | 0.00 | 36 | 935.7 |
| 20260831191312 | 23 | 84 | 0.0 | 0.0 | 0.00 | 0.00 | 0.00 | 40 | 935.8 |
| 20260831190808 | 25 | 69 | 0.0 | 0.0 | 0.00 | 0.00 | 0.00 | 40 | 935.5 |
| 20260831190308 | 25 | 61 | 0.0 | 1.6 | 0.00 | 0.00 | 0.00 | 35 | 935.8 |
| 20260831185807 | 25 | 288 | 0.0 | 1.6 | 0.00 | 0.00 | 0.00 | 35 | 935.7 |
| 20260831185306 | 25 | 341 | 6.4 | 9.7 | 0.00 | 0.00 | 0.00 | 38 | 935.9 |
| 20260831184802 | 25 | 4 | 0.0 | 8.0 | 0.00 | 0.00 | 0.00 | 38 | 936.2 |
| 20260831184258 | 25 | 19 | 0.0 | 1.6 | 0.00 | 0.00 | 0.00 | 37 | 936.2 |
| 20260831183753 | 24 | 333 | 8.0 | 9.7 | 0.00 | 0.00 | 0.00 | 38 | 936.5 |
| 20260831183252 | 25 | 9 | 0.0 | 0.0 | 0.00 | 0.00 | 0.00 | 38 | 936.5 |
| 20260831182751 | 23 | 4 | 0.0 | 9.7 | 0.00 | 0.00 | 0.00 | 38 | 936.5 |
| 20260831182246 | 23 | 351 | 8.0 | 11.3 | 0.00 | 0.00 | 0.00 | 43 | 936.5 |
| 20260831181741 | 23 | 338 | 0.0 | 9.7 | 0.00 | 0.00 | 0.00 | 42 | 936.4 |
| 20260831181237 | 23 | 359 | 3.2 | 9.7 | 0.00 | 0.00 | 0.00 | 43 | 936.4 |
| 20260831180737 | 23 | 337 | 0.0 | 0.0 | 0.00 | 0.00 | 0.00 | 41 | 936.5 |
| 20260831180232 | 23 | 335 | 3.2 | 4.8 | 0.00 | 0.00 | 0.00 | 43 | 936.6 |
| 20260831175731 | 22 | 348 | 8.0 | 12.9 | 0.00 | 0.00 | 0.00 | 45 | 936.4 |
| 20260831175228 | 22 | 357 | 4.8 | 9.7 | 0.00 | 0.00 | 0.00 | 44 | 936.8 |
| 20260831174722 | 22 | 332 | 0.0 | 8.0 | 0.00 | 0.00 | 0.00 | 47 | 936.6 |
| 20260831174218 | 21 | 6 | 4.8 | 8.0 | 0.00 | 0.00 | 0.00 | 47 | 936.8 |
| 20260831173717 | 21 | 14 | 0.0 | 9.7 | 0.00 | 0.00 | 0.00 | 50 | 936.9 |
| 20260831173212 | 21 | 14 | 6.4 | 11.3 | 0.00 | 0.00 | 0.00 | 50 | 936.9 |
| 20260831172712 | 21 | 10 | 1.6 | 4.8 | 0.00 | 0.00 | 0.00 | 48 | 936.8 |
| 20260831172208 | 21 | 349 | 1.6 | 3.2 | 0.00 | 0.00 | 0.00 | 49 | 936.9 |
| 20260831171702 | 20 | 250 | 1.6 | 4.8 | 0.00 | 0.00 | 0.00 | 52 | 936.9 |
| 20260831171200 | 20 | 297 | 0.0 | 4.8 | 0.00 | 0.00 | 0.00 | 53 | 937.0 |
| 20260831170656 | 20 | 354 | 0.0 | 0.0 | 0.00 | 0.00 | 0.00 | 55 | 937.0 |
| 20260831170152 | 20 | 299 | 4.8 | 4.8 | 0.00 | 0.00 | 0.00 | 56 | 936.9 |
| 20260831165648 | 19 | 4 | 4.8 | 8.0 | 0.00 | 0.00 | 0.00 | 57 | 936.9 |
| 20260831165144 | 18 | 8 | 0.0 | 3.2 | 0.00 | 0.00 | 0.00 | 55 | 936.9 |
| 20260831164640 | 18 | 344 | 1.6 | 4.8 | 0.00 | 0.00 | 0.00 | 58 | 937.0 |
| 20260831164136 | 18 | 353 | 4.8 | 8.0 | 0.00 | 0.00 | 0.00 | 60 | 936.9 |
| 20260831163631 | 17 | 318 | 4.8 | 8.0 | 0.00 | 0.00 | 0.00 | 60 | 936.9 |
| 20260831163126 | 17 | 356 | 4.8 | 4.8 | 0.00 | 0.00 | 0.00 | 59 | 936.7 |
| 20260831162625 | 17 | 334 | 4.8 | 8.0 | 0.00 | 0.00 | 0.00 | 60 | 936.7 |
| 20260831162123 | 17 | 7 | 0.0 | 0.0 | 0.00 | 0.00 | 0.00 | 62 | 936.6 |
| 20260831161619 | 16 | 7 | 4.8 | 8.0 | 0.00 | 0.00 | 0.00 | 61 | 936.7 |
| 20260831161116 | 16 | 347 | 1.6 | 8.0 | 0.00 | 0.00 | 0.00 | 63 | 936.6 |
| 20260831160615 | 16 | 7 | 4.8 | 8.0 | 0.00 | 0.00 | 0.00 | 63 | 936.8 |
| 20260831160111 | 16 | 5 | 0.0 | 0.0 | 0.00 | 0.00 | 0.00 | 62 | 936.8 |
| 20260831155610 | 15 | 29 | 0.0 | 1.6 | 0.00 | 0.00 | 0.00 | 63 | 936.6 |
| 20260831155106 | 15 | 10 | 0.0 | 3.2 | 0.00 | 0.00 | 0.00 | 62 | 936.8 |
| 20260831154602 | 15 | 357 | 3.2 | 4.8 | 0.00 | 0.00 | 0.00 | 62 | 937.0 |
| 20260831154102 | 15 | 353 | 3.2 | 4.8 | 0.00 | 0.00 | 0.00 | 63 | 937.0 |
| 20260831153601 | 15 | 359 | 3.2 | 4.8 | 0.00 | 0.00 | 0.00 | 64 | 937.0 |
| 20260831153058 | 15 | 1 | 1.6 | 3.2 | 0.00 | 0.00 | 0.00 | 63 | 937.0 |
| 20260831152553 | 15 | 4 | 4.8 | 4.8 | 0.00 | 0.00 | 0.00 | 65 | 936.9 |
| 20260831152049 | 15 | 15 | 3.2 | 3.2 | 0.00 | 0.00 | 0.00 | 65 | 937.0 |
| 20260831151548 | 15 | 16 | 3.2 | 3.2 | 0.00 | 0.00 | 0.00 | 65 | 937.2 |
| 20260831151043 | 15 | 47 | 0.0 | 0.0 | 0.00 | 0.00 | 0.00 | 64 | 937.0 |
| 20260831150538 | 15 | 55 | 0.0 | 0.0 | 0.00 | 0.00 | 0.00 | 65 | 937.0 |
| 20260831150034 | 14 | 46 | 0.0 | 0.0 | 0.00 | 0.00 | 0.00 | 66 | 937.3 |
| 20260831145528 | 13 | 45 | 0.0 | 1.6 | 0.00 | 0.00 | 0.00 | 68 | 937.0 |
| 20260831145024 | 13 | 66 | 1.6 | 4.8 | 0.00 | 0.00 | 0.00 | 67 | 937.2 |
| 20260831144520 | 13 | 53 | 0.0 | 1.6 | 0.00 | 0.00 | 0.00 | 68 | 937.0 |
| 20260831144015 | 12 | 65 | 1.6 | 3.2 | 0.00 | 0.00 | 0.00 | 69 | 936.9 |
| 20260831143509 | 12 | 75 | 0.0 | 3.2 | 0.00 | 0.00 | 0.00 | 71 | 937.0 |
| 20260831143005 | 11 | 81 | 1.6 | 3.2 | 0.00 | 0.00 | 0.00 | 72 | 937.0 |
| 20260831142501 | 11 | 46 | 0.0 | 1.6 | 0.00 | 0.00 | 0.00 | 74 | 937.2 |
| 20260831141956 | 11 | 83 | 1.6 | 3.2 | 0.00 | 0.00 | 0.00 | 74 | 936.9 |
| 20260831141455 | 10 | 85 | 1.6 | 8.0 | 0.00 | 0.00 | 0.00 | 75 | 936.9 |
| 20260831140950 | 10 | 78 | 1.6 | 3.2 | 0.00 | 0.00 | 0.00 | 76 | 936.6 |
| 20260831140445 | 10 | 64 | 1.6 | 4.8 | 0.00 | 0.00 | 0.00 | 76 | 936.5 |
| 20260831135944 | 10 | 46 | 0.0 | 0.0 | 0.00 | 0.00 | 0.00 | 77 | 936.1 |
| 20260831135443 | 10 | 83 | 3.2 | 4.8 | 0.00 | 0.00 | 0.00 | 77 | 936.2 |
| 20260831134938 | 9 | 50 | 0.0 | 0.0 | 0.00 | 0.00 | 0.00 | 79 | 936.0 |
| 20260831134434 | 8 | 76 | 1.6 | 3.2 | 0.00 | 0.00 | 0.00 | 80 | 936.1 |
| 20260831133934 | 8 | 79 | 1.6 | 3.2 | 0.00 | 0.00 | 0.00 | 82 | 936.1 |
| 20260831133434 | 7 | 48 | 0.0 | 1.6 | 0.00 | 0.00 | 0.00 | 83 | 935.9 |
| 20260831132929 | 7 | 70 | 1.6 | 4.8 | 0.00 | 0.00 | 0.00 | 84 | 935.8 |
| 20260831132425 | 7 | 79 | 3.2 | 4.8 | 0.00 | 0.00 | 0.00 | 85 | 935.7 |
| 20260831131924 | 7 | 72 | 3.2 | 3.2 | 0.00 | 0.00 | 0.00 | 87 | 935.8 |
| 20260831131419 | 6 | 58 | 1.6 | 3.2 | 0.00 | 0.00 | 0.00 | 87 | 935.7 |
| 20260831130915 | 6 | 62 | 3.2 | 4.8 | 0.00 | 0.00 | 0.00 | 88 | 935.7 |
| 20260831130410 | 6 | 129 | 3.2 | 4.8 | 0.00 | 0.00 | 0.00 | 87 | 935.8 |
| 20260831125909 | 6 | 79 | 1.6 | 3.2 | 0.00 | 0.00 | 0.00 | 87 | 935.7 |
| 20260831125405 | 6 | 86 | 3.2 | 4.8 | 0.00 | 0.00 | 0.00 | 88 | 935.7 |
| 20260831124900 | 6 | 110 | 3.2 | 3.2 | 0.00 | 0.00 | 0.00 | 88 | 935.8 |
| 20260831124356 | 6 | 95 | 3.2 | 3.2 | 0.00 | 0.00 | 0.00 | 88 | 935.7 |
| 20260831123856 | 6 | 47 | 0.0 | 3.2 | 0.00 | 0.00 | 0.00 | 88 | 935.7 |
| 20260831123355 | 6 | 55 | 0.0 | 4.8 | 0.00 | 0.00 | 0.00 | 88 | 935.7 |
| 20260831122855 | 6 | 72 | 3.2 | 3.2 | 0.00 | 0.00 | 0.00 | 88 | 935.7 |
| 20260831122351 | 6 | 91 | 3.2 | 3.2 | 0.00 | 0.00 | 0.00 | 88 | 935.8 |
| 20260831121846 | 6 | 98 | 3.2 | 3.2 | 0.00 | 0.00 | 0.00 | 88 | 935.7 |
| 20260831121342 | 6 | 65 | 1.6 | 3.2 | 0.00 | 0.00 | 0.00 | 87 | 935.8 |
| 20260831120837 | 6 | 71 | 1.6 | 3.2 | 0.00 | 0.00 | 0.00 | 87 | 935.6 |
| 20260831120331 | 6 | 79 | 3.2 | 3.2 | 0.00 | 0.00 | 0.00 | 87 | 935.8 |
| 20260831115827 | 6 | 49 | 0.0 | 3.2 | 0.00 | 0.00 | 0.00 | 87 | 935.5 |
| 20260831115324 | 6 | 85 | 4.8 | 4.8 | 0.00 | 0.00 | 0.00 | 87 | 935.6 |
| 20260831114822 | 6 | 88 | 4.8 | 4.8 | 0.00 | 0.00 | 0.00 | 87 | 935.6 |
| 20260831114321 | 6 | 76 | 4.8 | 4.8 | 0.00 | 0.00 | 0.00 | 87 | 935.5 |
| 20260831113818 | 6 | 60 | 3.2 | 3.2 | 0.00 | 0.00 | 0.00 | 87 | 935.6 |
| 20260831113317 | 6 | 67 | 1.6 | 3.2 | 0.00 | 0.00 | 0.00 | 87 | 935.5 |
| 20260831112812 | 7 | 34 | 0.0 | 3.2 | 0.00 | 0.00 | 0.00 | 87 | 935.6 |
| 20260831112307 | 7 | 87 | 1.6 | 3.2 | 0.00 | 0.00 | 0.00 | 87 | 935.5 |
| 20260831111802 | 7 | 69 | 1.6 | 3.2 | 0.00 | 0.00 | 0.00 | 88 | 935.6 |
| 20260831111259 | 6 | 92 | 3.2 | 4.8 | 0.00 | 0.00 | 0.00 | 88 | 935.5 |
| 20260831110754 | 6 | 75 | 1.6 | 3.2 | 0.00 | 0.00 | 0.00 | 87 | 935.6 |
| 20260831110249 | 7 | 79 | 1.6 | 3.2 | 0.00 | 0.00 | 0.00 | 87 | 935.6 |
| 20260831105747 | 7 | 44 | 0.0 | 0.0 | 0.00 | 0.00 | 0.00 | 86 | 935.6 |
| 20260831105243 | 7 | 62 | 1.6 | 3.2 | 0.00 | 0.00 | 0.00 | 86 | 935.7 |
| 20260831104738 | 7 | 78 | 3.2 | 4.8 | 0.00 | 0.00 | 0.00 | 86 | 935.7 |
| 20260831104235 | 7 | 82 | 3.2 | 3.2 | 0.00 | 0.00 | 0.00 | 86 | 935.7 |
| 20260831103734 | 7 | 80 | 4.8 | 4.8 | 0.00 | 0.00 | 0.00 | 86 | 935.6 |
| 20260831103230 | 7 | 68 | 1.6 | 3.2 | 0.00 | 0.00 | 0.00 | 86 | 935.7 |
| 20260831102729 | 7 | 31 | 0.0 | 1.6 | 0.00 | 0.00 | 0.00 | 86 | 935.3 |
| 20260831102225 | 7 | 130 | 3.2 | 4.8 | 0.00 | 0.00 | 0.00 | 86 | 935.6 |
| 20260831101720 | 7 | 41 | 0.0 | 3.2 | 0.00 | 0.00 | 0.00 | 86 | 935.7 |
| 20260831101216 | 7 | 97 | 1.6 | 4.8 | 0.00 | 0.00 | 0.00 | 86 | 935.6 |
| 20260831100711 | 7 | 77 | 1.6 | 4.8 | 0.00 | 0.00 | 0.00 | 86 | 935.3 |
| 20260831100207 | 7 | 73 | 0.0 | 3.2 | 0.00 | 0.00 | 0.00 | 86 | 935.5 |
| 20260831095705 | 7 | 52 | 0.0 | 1.6 | 0.00 | 0.00 | 0.00 | 86 | 935.6 |
| 20260831095201 | 7 | 44 | 0.0 | 1.6 | 0.00 | 0.00 | 0.00 | 86 | 935.5 |
| 20260831094656 | 7 | 68 | 0.0 | 1.6 | 0.00 | 0.00 | 0.00 | 86 | 935.5 |
| 20260831094152 | 7 | 62 | 1.6 | 3.2 | 0.00 | 0.00 | 0.00 | 85 | 935.1 |
| 20260831093647 | 8 | 113 | 0.0 | 0.0 | 0.00 | 0.00 | 0.00 | 85 | 935.3 |
| 20260831093143 | 8 | 114 | 0.0 | 0.0 | 0.00 | 0.00 | 0.00 | 86 | 935.1 |
| 20260831092639 | 8 | 67 | 0.0 | 0.0 | 0.00 | 0.00 | 0.00 | 86 | 935.6 |
| 20260831092135 | 8 | 49 | 0.0 | 0.0 | 0.00 | 0.00 | 0.00 | 86 | 935.2 |
| 20260831091634 | 8 | 48 | 0.0 | 0.0 | 0.00 | 0.00 | 0.00 | 86 | 935.5 |
| 20260831091130 | 8 | 63 | 0.0 | 0.0 | 0.00 | 0.00 | 0.00 | 85 | 935.5 |
| 20260831090625 | 8 | 56 | 0.0 | 0.0 | 0.00 | 0.00 | 0.00 | 85 | 935.2 |
| 20260831090121 | 8 | 51 | 0.0 | 0.0 | 0.00 | 0.00 | 0.00 | 85 | 935.3 |
| 20260831085616 | 8 | 70 | 0.0 | 0.0 | 0.00 | 0.00 | 0.00 | 85 | 935.3 |
| 20260831085112 | 8 | 59 | 0.0 | 0.0 | 0.00 | 0.00 | 0.00 | 85 | 935.3 |
| 20260831084607 | 8 | 79 | 0.0 | 0.0 | 0.00 | 0.00 | 0.00 | 85 | 935.2 |
| 20260831084103 | 8 | 53 | 0.0 | 0.0 | 0.00 | 0.00 | 0.00 | 85 | 935.1 |
| 20260831083559 | 8 | 81 | 0.0 | 0.0 | 0.00 | 0.00 | 0.00 | 86 | 935.2 |
| 20260831083054 | 8 | 51 | 0.0 | 0.0 | 0.00 | 0.00 | 0.00 | 86 | 935.2 |
| 20260831082553 | 8 | 67 | 0.0 | 0.0 | 0.00 | 0.00 | 0.00 | 86 | 935.2 |
| 20260831082048 | 8 | 63 | 0.0 | 3.2 | 0.00 | 0.00 | 0.00 | 86 | 935.2 |
| 20260831081544 | 8 | 137 | 3.2 | 8.0 | 0.00 | 0.00 | 0.00 | 86 | 935.3 |
| 20260831081040 | 8 | 111 | 0.0 | 0.0 | 0.00 | 0.00 | 0.00 | 86 | 935.5 |
| 20260831080540 | 8 | 33 | 0.0 | 0.0 | 0.00 | 0.00 | 0.00 | 86 | 935.5 |
| 20260831080035 | 8 | 56 | 0.0 | 3.2 | 0.00 | 0.00 | 0.00 | 86 | 935.3 |
| 20260831075530 | 8 | 46 | 1.6 | 3.2 | 0.00 | 0.00 | 0.00 | 86 | 935.6 |
| 20260831075026 | 8 | 44 | 0.0 | 0.0 | 0.00 | 0.00 | 0.00 | 86 | 935.7 |
| 20260831074526 | 8 | 50 | 0.0 | 0.0 | 0.00 | 0.00 | 0.00 | 85 | 935.7 |
| 20260831074025 | 8 | 55 | 0.0 | 1.6 | 0.00 | 0.00 | 0.00 | 85 | 935.5 |
| 20260831073520 | 8 | 46 | 0.0 | 0.0 | 0.00 | 0.00 | 0.00 | 85 | 935.6 |
| 20260831073020 | 8 | 68 | 1.6 | 3.2 | 0.00 | 0.00 | 0.00 | 85 | 935.6 |
| 20260831072515 | 8 | 56 | 0.0 | 0.0 | 0.00 | 0.00 | 0.00 | 85 | 935.6 |
| 20260831072012 | 9 | 84 | 0.0 | 0.0 | 0.00 | 0.00 | 0.00 | 85 | 935.3 |
| 20260831071510 | 9 | 56 | 0.0 | 0.0 | 0.00 | 0.00 | 0.00 | 85 | 935.5 |
| 20260831071006 | 9 | 49 | 0.0 | 0.0 | 0.00 | 0.00 | 0.00 | 84 | 935.2 |
| 20260831070504 | 9 | 103 | 0.0 | 3.2 | 0.00 | 0.00 | 0.00 | 84 | 935.3 |